STARLINK-32344

Last updated on Thu Nov 21 2024 00:02:05 GMT+0000 (Coordinated Universal Time)

1 61719U 24196N 24325.58335648 -.01404991 00000+0 -13440-1 0 9996 2 61719 53.1597 149.2987 0001044 71.5996 69.3351 15.69100566 4530
UTC large
Height (km)
Speed (km/s)
/
Latitude / Longitude
Inclination (degrees)
Orbital Period (minutes)
Azimuth
Elevation
Range (km)
Doppler Factor

Next 0 passes for location: London (51.5072 / 0.1276)

Sorry there are no passes over London.